SVR267 USSS-UNKL

Flight info

Callsign SVR267
Flight time N/A
Altitude 35000
Route DOSUM6K DOSUM T377 SALER N992 NH R372 ADONI A300 ROTLI/K0776F270 A300 RANET RANET2S
Aircraft A321/M-SDE3FGHIRWY/LB1

Departure

Time 2026-05-05 13:04
Airport Koltsovo Airport (USSS)

Arrival

Time N/A
Airport Krasnoyarsk International Airport (UNKL)
Time Latitude Longitude Altitude Speed Heading
2026-05-05 12:16 56.74771 60.80892 777 ft 0 kts 179°
2026-05-05 12:51 56.74765 60.80892 777 ft 2 kts 179°
2026-05-05 12:51 56.74749 60.80881 777 ft 3 kts 224°
2026-05-05 12:51 56.74740 60.80841 777 ft 2 kts 266°
2026-05-05 12:52 56.74741 60.80824 777 ft 0 kts 272°
2026-05-05 12:52 56.74741 60.80799 777 ft 4 kts 271°
2026-05-05 12:52 56.74741 60.80722 776 ft 6 kts 268°
2026-05-05 12:52 56.74753 60.80662 776 ft 4 kts 318°
2026-05-05 12:53 56.74780 60.80649 777 ft 5 kts 358°
2026-05-05 12:53 56.74811 60.80648 777 ft 4 kts 359°
2026-05-05 12:53 56.74829 60.80650 777 ft 2 kts
2026-05-05 12:53 56.74850 60.80687 777 ft 6 kts 64°
2026-05-05 12:54 56.74854 60.80820 777 ft 4 kts 89°
2026-05-05 12:54 56.74854 60.80859 777 ft 4 kts 90°
2026-05-05 12:54 56.74853 60.80926 777 ft 6 kts 90°
2026-05-05 12:55 56.74857 60.81020 777 ft 9 kts 76°
2026-05-05 12:55 56.74863 60.81116 777 ft 7 kts 91°
2026-05-05 12:55 56.74863 60.81189 777 ft 5 kts 90°
2026-05-05 12:55 56.74863 60.81245 777 ft 5 kts 90°
2026-05-05 12:56 56.74863 60.81299 777 ft 3 kts 90°
2026-05-05 12:56 56.74863 60.81356 777 ft 8 kts 90°
2026-05-05 12:56 56.74863 60.81478 777 ft 9 kts 90°
2026-05-05 12:56 56.74863 60.81584 777 ft 7 kts 90°
2026-05-05 12:57 56.74862 60.81664 777 ft 5 kts 91°
2026-05-05 12:57 56.74862 60.81727 777 ft 6 kts 89°
2026-05-05 12:57 56.74861 60.81825 777 ft 8 kts 96°
2026-05-05 12:57 56.74844 60.81911 777 ft 6 kts 116°
2026-05-05 12:58 56.74825 60.81977 777 ft 6 kts 116°
2026-05-05 12:58 56.74811 60.82029 777 ft 4 kts 116°
2026-05-05 12:58 56.74800 60.82067 777 ft 3 kts 118°
2026-05-05 12:58 56.74788 60.82106 777 ft 4 kts 117°
2026-05-05 12:59 56.74775 60.82151 777 ft 4 kts 121°
2026-05-05 12:59 56.74752 60.82192 777 ft 5 kts 149°
2026-05-05 12:59 56.74708 60.82202 777 ft 8 kts 181°
2026-05-05 13:00 56.74624 60.82200 777 ft 4 kts 180°
2026-05-05 13:00 56.74594 60.82200 777 ft 4 kts 180°
2026-05-05 13:01 56.74457 60.82200 777 ft 12 kts 181°
2026-05-05 13:01 56.74370 60.82188 777 ft 13 kts 185°
2026-05-05 13:01 56.74274 60.82175 777 ft 15 kts 184°
2026-05-05 13:01 56.74167 60.82161 777 ft 16 kts 184°
2026-05-05 13:02 56.74080 60.82150 777 ft 2 kts 184°
2026-05-05 13:02 56.74064 60.82104 777 ft 8 kts 264°
2026-05-05 13:02 56.74066 60.82050 777 ft 0 kts 277°
2026-05-05 13:03 56.74074 60.81900 777 ft 43 kts 274°
2026-05-05 13:03 56.74112 60.80916 777 ft 109 kts 274°
2026-05-05 13:04 56.74180 60.79192 778 ft 161 kts 274°
2026-05-05 13:04 56.74247 60.77066 1230 ft 167 kts 274°
2026-05-05 13:04 56.74282 60.74942 1955 ft 168 kts 271°
2026-05-05 13:04 56.74308 60.72738 2453 ft 185 kts 271°
2026-05-05 13:05 56.74335 60.70237 2786 ft 209 kts 271°
2026-05-05 13:05 56.74362 60.67491 3197 ft 225 kts 271°
2026-05-05 13:05 56.74394 60.64606 3805 ft 230 kts 271°
2026-05-05 13:05 56.74430 60.61681 4495 ft 232 kts 271°
2026-05-05 13:06 56.74467 60.58722 5179 ft 235 kts 271°
2026-05-05 13:06 56.74502 60.55741 5883 ft 236 kts 270°
2026-05-05 13:06 56.74214 60.52731 6239 ft 255 kts 242°
2026-05-05 13:06 56.72928 60.50438 6681 ft 269 kts 206°
2026-05-05 13:07 56.71071 60.49891 7280 ft 280 kts 172°
2026-05-05 13:07 56.69284 60.51338 7907 ft 289 kts 139°
2026-05-05 13:07 56.68171 60.54373 8568 ft 295 kts 106°
2026-05-05 13:07 56.68086 60.58068 9236 ft 296 kts 76°
2026-05-05 13:08 56.68760 60.61608 9896 ft 298 kts 65°
2026-05-05 13:08 56.69594 60.65104 10203 ft 315 kts 65°
2026-05-05 13:08 56.70517 60.68944 10332 ft 338 kts 65°
2026-05-05 13:08 56.71464 60.72924 10460 ft 358 kts 67°
2026-05-05 13:09 56.72258 60.77327 10719 ft 372 kts 73°
2026-05-05 13:09 56.72857 60.81943 11271 ft 377 kts 77°
2026-05-05 13:09 56.73353 60.86630 11849 ft 381 kts 78°
2026-05-05 13:09 56.73913 60.91372 12442 ft 382 kts 70°
2026-05-05 13:10 56.75024 60.95746 13037 ft 381 kts 54°
2026-05-05 13:10 56.76752 60.99367 13641 ft 379 kts 38°
2026-05-05 13:10 56.78942 61.02002 14165 ft 378 kts 25°
2026-05-05 13:10 56.81282 61.04221 14689 ft 380 kts 25°
2026-05-05 13:11 56.83626 61.06484 15212 ft 383 kts 26°
2026-05-05 13:11 56.85982 61.08790 15714 ft 386 kts 26°
2026-05-05 13:11 56.87581 61.10368 16051 ft 388 kts 26°
2026-05-05 13:11 56.89962 61.12729 16552 ft 391 kts 26°
2026-05-05 13:12 56.92322 61.15076 17045 ft 393 kts 26°
2026-05-05 13:12 56.94827 61.17296 17550 ft 395 kts 19°
2026-05-05 13:12 56.97413 61.19016 18050 ft 397 kts 18°
2026-05-05 13:12 57.00021 61.20734 18487 ft 400 kts 18°
2026-05-05 13:13 57.02643 61.22466 18914 ft 402 kts 18°
2026-05-05 13:13 57.05282 61.24217 19342 ft 403 kts 18°
2026-05-05 13:13 57.07926 61.25979 19756 ft 405 kts 19°
2026-05-05 13:13 57.10580 61.27749 20165 ft 407 kts 19°
2026-05-05 13:14 57.13246 61.29530 20556 ft 409 kts 19°
2026-05-05 13:14 57.15928 61.31320 20930 ft 411 kts 19°
2026-05-05 13:14 57.18625 61.33119 21298 ft 413 kts 19°
2026-05-05 13:14 57.21330 61.34930 21672 ft 415 kts 19°
2026-05-05 13:15 57.24019 61.36908 22032 ft 417 kts 25°
2026-05-05 13:15 57.26500 61.39726 22377 ft 421 kts 36°
2026-05-05 13:15 57.28663 61.43394 22721 ft 425 kts 47°
2026-05-05 13:15 57.30403 61.47693 23060 ft 429 kts 57°
2026-05-05 13:16 57.31758 61.52726 23404 ft 432 kts 65°
2026-05-05 13:16 57.32922 61.57870 23689 ft 434 kts 65°
2026-05-05 13:16 57.34080 61.63027 23967 ft 436 kts 65°
2026-05-05 13:16 57.35237 61.68235 24229 ft 437 kts 65°
2026-05-05 13:17 57.36373 61.73383 24487 ft 438 kts 65°
2026-05-05 13:17 57.37528 61.78623 24744 ft 440 kts 65°
2026-05-05 13:17 57.38689 61.83875 24990 ft 441 kts 65°
2026-05-05 13:17 57.39854 61.89155 25233 ft 443 kts 65°
2026-05-05 13:18 57.41019 61.94449 25465 ft 444 kts 65°
2026-05-05 13:18 57.42187 61.99762 25708 ft 445 kts 65°
2026-05-05 13:18 57.43355 62.05091 25961 ft 446 kts 65°
2026-05-05 13:18 57.44522 62.10425 26193 ft 447 kts 65°
2026-05-05 13:19 57.45689 62.15785 26413 ft 448 kts 65°
2026-05-05 13:19 57.46854 62.21157 26617 ft 450 kts 66°
2026-05-05 13:19 57.47982 62.26592 26820 ft 451 kts 67°
2026-05-05 13:19 57.49064 62.32068 27015 ft 452 kts 68°
2026-05-05 13:20 57.50120 62.37586 27195 ft 454 kts 68°
2026-05-05 13:20 57.51165 62.43114 27464 ft 453 kts 68°
2026-05-05 13:20 57.52208 62.48631 27729 ft 452 kts 68°
2026-05-05 13:20 57.53258 62.54144 28012 ft 451 kts 68°
2026-05-05 13:21 57.54312 62.59627 28313 ft 450 kts 68°
2026-05-05 13:21 57.55370 62.65109 28581 ft 449 kts 68°
2026-05-05 13:21 57.56426 62.70573 28854 ft 448 kts 68°
2026-05-05 13:21 57.57465 62.75967 29118 ft 448 kts 68°
2026-05-05 13:22 57.58520 62.81496 29391 ft 447 kts 68°
2026-05-05 13:22 57.59542 62.86882 29659 ft 446 kts 68°
2026-05-05 13:22 57.60573 62.92331 29932 ft 445 kts 68°
2026-05-05 13:22 57.61603 62.97782 30159 ft 445 kts 68°
2026-05-05 13:23 57.62629 63.03220 30347 ft 445 kts 68°
2026-05-05 13:23 57.63657 63.08677 30534 ft 446 kts 68°
2026-05-05 13:23 57.64685 63.14146 30712 ft 447 kts 68°
2026-05-05 13:23 57.65713 63.19630 30869 ft 448 kts 68°
2026-05-05 13:24 57.66740 63.25124 31040 ft 449 kts 69°
2026-05-05 13:24 57.67766 63.30640 31221 ft 449 kts 69°
2026-05-05 13:24 57.68787 63.36156 31404 ft 449 kts 69°
2026-05-05 13:24 57.69806 63.41683 31581 ft 450 kts 69°
2026-05-05 13:25 57.70823 63.47213 31765 ft 450 kts 69°
2026-05-05 13:25 57.71841 63.52756 31950 ft 451 kts 69°
2026-05-05 13:25 57.72859 63.58306 32131 ft 451 kts 69°
2026-05-05 13:25 57.73875 63.63861 32309 ft 451 kts 69°
2026-05-05 13:26 57.74887 63.69428 32482 ft 452 kts 69°
2026-05-05 13:26 57.75893 63.74990 32612 ft 454 kts 69°
2026-05-05 13:26 57.76906 63.80596 32762 ft 455 kts 69°
2026-05-05 13:26 57.77921 63.86215 32928 ft 455 kts 69°
2026-05-05 13:27 57.78934 63.91837 33102 ft 456 kts 69°
2026-05-05 13:27 57.79944 63.97463 33272 ft 456 kts 69°
2026-05-05 13:27 57.80953 64.03104 33450 ft 456 kts 70°
2026-05-05 13:27 57.81960 64.08744 33623 ft 456 kts 70°
2026-05-05 13:28 57.82888 64.14448 33786 ft 458 kts 75°
2026-05-05 13:28 57.83477 64.20322 33936 ft 459 kts 78°
2026-05-05 13:28 57.84021 64.26232 34069 ft 459 kts 78°
2026-05-05 13:28 57.84564 64.32136 34204 ft 460 kts 78°
2026-05-05 13:29 57.85105 64.38058 34330 ft 460 kts 79°
2026-05-05 13:29 57.85645 64.43988 34445 ft 461 kts 79°
2026-05-05 13:29 57.86184 64.49940 34567 ft 462 kts 79°
2026-05-05 13:29 57.86721 64.55893 34682 ft 463 kts 79°
2026-05-05 13:30 57.87245 64.61770 34831 ft 463 kts 79°
2026-05-05 13:30 57.87773 64.67744 34887 ft 465 kts 79°
2026-05-05 13:30 57.88826 64.79776 34886 ft 467 kts 79°
2026-05-05 13:31 57.89880 64.91925 34886 ft 468 kts 79°
2026-05-05 13:31 57.90917 65.03934 34889 ft 468 kts 79°
2026-05-05 13:32 57.91949 65.16025 34887 ft 469 kts 79°
2026-05-05 13:32 57.92967 65.28138 34894 ft 469 kts 80°
2026-05-05 13:33 57.93974 65.40269 34892 ft 469 kts 80°
2026-05-05 13:33 57.94973 65.52405 34901 ft 469 kts 80°
2026-05-05 13:34 57.95958 65.64557 34902 ft 470 kts 80°
2026-05-05 13:34 57.96931 65.76714 34901 ft 469 kts 80°
2026-05-05 13:35 57.97887 65.88881 34911 ft 469 kts 81°
2026-05-05 13:35 57.98838 66.01045 34910 ft 469 kts 81°
2026-05-05 13:36 57.99755 66.13222 34908 ft 469 kts 81°
2026-05-05 13:36 58.00657 66.25398 34902 ft 469 kts 81°
2026-05-05 13:37 58.01548 66.37584 34907 ft 469 kts 81°
2026-05-05 13:37 58.02436 66.49787 34897 ft 469 kts 81°
2026-05-05 13:38 58.03310 66.61982 34900 ft 469 kts 81°
2026-05-05 13:38 58.04174 66.74193 34906 ft 469 kts 82°
2026-05-05 13:39 58.05021 66.86409 34895 ft 470 kts 82°
2026-05-05 13:39 58.05873 66.98638 34898 ft 470 kts 82°
2026-05-05 13:40 58.06728 67.10879 34910 ft 470 kts 82°
2026-05-05 13:40 58.07575 67.23133 34896 ft 470 kts 82°
2026-05-05 13:41 58.08396 67.35302 34920 ft 471 kts 82°
2026-05-05 13:41 58.09210 67.47588 34905 ft 471 kts 82°
2026-05-05 13:42 58.10012 67.59876 34906 ft 471 kts 82°
2026-05-05 13:42 58.10809 67.72169 34899 ft 471 kts 82°
2026-05-05 13:43 58.11591 67.84472 34904 ft 471 kts 83°
2026-05-05 13:43 58.12350 67.96763 34904 ft 472 kts 83°
2026-05-05 13:44 58.13104 68.09101 34914 ft 472 kts 83°
2026-05-05 13:44 58.13851 68.21449 34904 ft 473 kts 83°
2026-05-05 13:45 58.14262 68.33839 34907 ft 473 kts 89°
2026-05-05 13:45 58.14322 68.46292 34906 ft 473 kts 89°
2026-05-05 13:46 58.14369 68.58726 34907 ft 473 kts 90°
2026-05-05 13:46 58.14401 68.71183 34909 ft 473 kts 90°
2026-05-05 13:47 58.14428 68.83650 34892 ft 473 kts 90°
2026-05-05 13:47 58.14442 68.96106 34902 ft 474 kts 90°
2026-05-05 13:48 58.14441 69.08595 34872 ft 475 kts 90°
2026-05-05 13:48 58.14438 69.21107 34876 ft 476 kts 90°
2026-05-05 13:49 58.14412 69.33550 34871 ft 476 kts 91°
2026-05-05 13:49 58.14379 69.46192 34877 ft 478 kts 91°
2026-05-05 13:50 58.14335 69.58697 34874 ft 478 kts 91°
2026-05-05 13:50 58.14272 69.71280 34888 ft 478 kts 91°
2026-05-05 13:51 58.14201 69.83874 34881 ft 479 kts 91°
2026-05-05 13:51 58.14115 69.96488 34883 ft 479 kts 92°
2026-05-05 13:52 58.14015 70.09105 34883 ft 480 kts 92°
2026-05-05 13:52 58.13909 70.21752 34876 ft 480 kts 92°
2026-05-05 13:53 58.13784 70.34392 34873 ft 480 kts 92°
2026-05-05 13:53 58.13651 70.47035 34891 ft 481 kts 92°
2026-05-05 13:54 58.13507 70.59695 34892 ft 481 kts 92°
2026-05-05 13:54 58.13348 70.72340 34864 ft 481 kts 93°
2026-05-05 13:55 58.13169 70.85005 34865 ft 482 kts 93°
2026-05-05 13:55 58.12981 70.97693 34869 ft 483 kts 93°
2026-05-05 13:56 58.12787 71.10382 34880 ft 483 kts 93°
2026-05-05 13:56 58.12579 71.23080 34877 ft 483 kts 93°
2026-05-05 13:57 58.12347 71.35798 34868 ft 484 kts 94°
2026-05-05 13:57 58.12114 71.48521 34869 ft 484 kts 94°
2026-05-05 13:58 58.11909 71.59116 34870 ft 485 kts 94°
2026-05-05 13:58 58.11650 71.71838 34872 ft 485 kts 94°
2026-05-05 13:59 58.11240 71.90949 34867 ft 485 kts 94°
2026-05-05 14:00 58.10790 72.10087 34863 ft 486 kts 94°
2026-05-05 14:00 58.10473 72.22857 34866 ft 487 kts 94°
2026-05-05 14:01 58.10149 72.35628 34869 ft 487 kts 94°
2026-05-05 14:01 58.09810 72.48437 34872 ft 487 kts 95°
2026-05-05 14:02 58.09458 72.61232 34868 ft 488 kts 95°
2026-05-05 14:02 58.09103 72.74060 34868 ft 489 kts 95°
2026-05-05 14:03 58.08752 72.86913 34871 ft 490 kts 95°
2026-05-05 14:03 58.08396 72.99777 34875 ft 490 kts 95°
2026-05-05 14:04 58.08015 73.12650 34882 ft 490 kts 95°
2026-05-05 14:04 58.07609 73.25510 34883 ft 490 kts 95°
2026-05-05 14:05 58.07195 73.38287 34875 ft 491 kts 95°
2026-05-05 14:05 58.06767 73.51166 34875 ft 492 kts 95°
2026-05-05 14:06 58.06332 73.64043 34879 ft 492 kts 95°
2026-05-05 14:06 58.05889 73.76892 34884 ft 492 kts 96°
2026-05-05 14:07 58.05425 73.89790 34888 ft 493 kts 96°